Time,TemperatureF,DewpointF,PressureIn,WindDirection,WindDirectionDegrees,WindSpeedMPH,WindSpeedGustMPH,Humidity,HourlyPrecipIn,Conditions,Clouds,dailyrainin,SoftwareType,DateUTC
2013-05-09 10:32:00,51.0,50.0,25.87,North,356,1.0,3.0,95,0.00,,,0.00,,2013-05-09 17:32:00,
2013-05-09 10:41:00,51.0,50.0,25.87,North,356,1.0,3.0,95,0.00,,,0.00,,2013-05-09 17:41:00,
2013-05-09 10:55:00,51.0,50.0,25.88,NNE,24,2.0,6.0,95,0.00,,,0.00,,2013-05-09 17:55:00,
2013-05-09 11:01:00,51.0,50.0,25.88,NNE,24,2.0,6.0,95,0.00,,,0.00,,2013-05-09 18:01:00,
2013-05-09 11:12:00,51.0,50.0,25.88,NNE,24,2.0,6.0,95,0.00,,,0.00,,2013-05-09 18:12:00,
2013-05-09 11:21:00,54.0,51.0,25.88,NNE,17,2.0,6.0,91,0.00,,,0.00,,2013-05-09 18:21:00,
2013-05-09 11:31:00,57.0,53.0,25.88,NNE,19,4.0,6.0,85,0.00,,,0.00,,2013-05-09 18:31:00,
2013-05-09 11:42:00,57.0,53.0,25.88,NNE,19,4.0,6.0,85,0.00,,,0.00,,2013-05-09 18:42:00,
2013-05-09 11:52:00,57.0,53.0,25.89,North,358,2.0,7.0,85,0.00,,,0.00,,2013-05-09 18:52:00,
2013-05-09 12:01:00,57.0,53.0,25.89,North,358,2.0,7.0,85,0.00,,,0.00,,2013-05-09 19:01:00,
2013-05-09 12:11:00,57.0,53.0,25.89,North,358,2.0,7.0,85,0.00,,,0.00,,2013-05-09 19:11:00,
2013-05-09 12:21:00,58.0,53.0,25.87,NNW,333,3.0,7.0,83,0.00,,,0.00,,2013-05-09 19:21:00,
2013-05-09 12:31:00,57.0,52.0,25.87,West,274,3.0,10.0,84,0.00,,,0.00,,2013-05-09 19:31:00,
2013-05-09 12:41:00,57.0,52.0,25.87,West,274,3.0,10.0,84,0.00,,,0.00,,2013-05-09 19:41:00,
2013-05-09 12:52:00,57.0,52.0,25.87,West,274,3.0,10.0,84,0.00,,,0.00,,2013-05-09 19:52:00,
2013-05-09 13:01:00,55.0,51.0,25.88,NW,310,3.0,13.0,87,0.00,,,0.00,,2013-05-09 20:01:00,
2013-05-09 13:11:00,55.0,51.0,25.88,NW,310,3.0,13.0,87,0.00,,,0.00,,2013-05-09 20:11:00,
2013-05-09 13:22:00,55.0,51.0,25.88,NW,310,3.0,13.0,87,0.00,,,0.00,,2013-05-09 20:22:00,
2013-05-09 13:32:00,55.0,51.0,25.88,NW,310,3.0,13.0,87,0.00,,,0.00,,2013-05-09 20:32:00,
2013-05-09 13:42:00,54.0,51.0,25.89,NW,315,8.0,16.0,89,0.00,,,0.00,,2013-05-09 20:42:00,
2013-05-09 13:52:00,54.0,51.0,25.89,NW,315,8.0,16.0,89,0.00,,,0.00,,2013-05-09 20:52:00,
2013-05-09 14:01:00,52.0,50.0,25.89,NW,312,7.0,18.0,92,0.00,,,0.00,,2013-05-09 21:01:00,
2013-05-09 14:11:00,52.0,50.0,25.89,NW,312,7.0,18.0,92,0.00,,,0.00,,2013-05-09 21:11:00,
2013-05-09 14:22:00,52.0,50.0,25.89,WNW,303,6.0,15.0,92,0.00,,,0.00,,2013-05-09 21:22:00,
2013-05-09 14:32:00,52.0,50.0,25.88,WNW,295,8.0,16.0,92,0.00,,,0.00,,2013-05-09 21:32:00,
2013-05-09 14:42:00,52.0,50.0,25.88,NW,308,7.0,17.0,92,0.00,,,0.00,,2013-05-09 21:42:00,
2013-05-09 14:52:00,52.0,50.0,25.88,NW,308,7.0,17.0,92,0.00,,,0.00,,2013-05-09 21:52:00,
2013-05-09 15:02:00,52.0,50.0,25.88,NW,319,9.0,20.0,92,0.00,,,0.00,,2013-05-09 22:02:00,
2013-05-09 15:12:00,52.0,50.0,25.88,NW,319,9.0,20.0,92,0.00,,,0.00,,2013-05-09 22:12:00,
2013-05-09 15:22:00,52.0,50.0,25.88,NW,319,9.0,20.0,92,0.00,,,0.00,,2013-05-09 22:22:00,
2013-05-09 15:32:00,51.0,49.0,25.87,WNW,302,4.0,17.0,93,0.00,,,0.00,,2013-05-09 22:32:00,
2013-05-09 15:42:00,51.0,49.0,25.88,NW,317,5.0,14.0,93,0.00,,,0.00,,2013-05-09 22:42:00,
2013-05-09 15:52:00,51.0,49.0,25.88,NW,317,5.0,14.0,93,0.00,,,0.00,,2013-05-09 22:52:00,
2013-05-09 16:02:00,51.0,49.0,25.88,NW,317,5.0,14.0,93,0.00,,,0.00,,2013-05-09 23:02:00,
2013-05-09 16:11:00,51.0,49.0,25.88,NW,317,5.0,14.0,93,0.00,,,0.00,,2013-05-09 23:11:00,
2013-05-09 16:21:00,51.0,49.0,25.88,NW,317,5.0,14.0,93,0.00,,,0.00,,2013-05-09 23:21:00,
2013-05-09 16:32:00,51.0,49.0,25.89,NW,323,3.0,19.0,94,0.00,,,0.00,,2013-05-09 23:32:00,
2013-05-09 16:42:00,51.0,49.0,25.89,NW,310,8.0,13.0,93,0.00,,,0.00,,2013-05-09 23:42:00,
2013-05-09 16:52:00,51.0,49.0,25.89,NW,310,8.0,13.0,93,0.00,,,0.00,,2013-05-09 23:52:00,
2013-05-09 17:01:00,51.0,49.0,25.88,WNW,286,3.0,10.0,94,0.00,,,0.00,,2013-05-10 00:01:00,
2013-05-09 17:11:00,51.0,49.0,25.88,WNW,286,3.0,10.0,94,0.00,,,0.00,,2013-05-10 00:11:00,
2013-05-09 17:21:00,51.0,49.0,25.88,WNW,286,3.0,10.0,94,0.00,,,0.00,,2013-05-10 00:21:00,
2013-05-09 17:32:00,51.0,49.0,25.88,NW,309,3.0,15.0,94,0.00,,,0.00,,2013-05-10 00:32:00,
2013-05-09 17:42:00,51.0,49.0,25.88,NW,322,5.0,14.0,94,0.00,,,0.00,,2013-05-10 00:42:00,
2013-05-09 17:52:00,51.0,49.0,25.88,NW,322,5.0,14.0,94,0.00,,,0.00,,2013-05-10 00:52:00,
2013-05-09 18:01:00,51.0,49.0,25.88,NW,322,5.0,14.0,94,0.00,,,0.00,,2013-05-10 01:01:00,
2013-05-09 18:11:00,51.0,49.0,25.88,NW,323,5.0,10.0,94,0.00,,,0.00,,2013-05-10 01:11:00,
2013-05-09 18:21:00,51.0,49.0,25.88,NW,323,5.0,10.0,94,0.00,,,0.00,,2013-05-10 01:21:00,
2013-05-09 18:31:00,50.0,49.0,25.88,NW,313,6.0,11.0,95,0.00,,,0.00,,2013-05-10 01:31:00,
2013-05-09 18:41:00,50.0,49.0,25.88,NW,313,6.0,11.0,95,0.00,,,0.00,,2013-05-10 01:41:00,
2013-05-09 18:52:00,50.0,49.0,25.88,NW,313,6.0,11.0,95,0.00,,,0.00,,2013-05-10 01:52:00,
2013-05-09 19:01:00,50.0,49.0,25.88,NW,313,6.0,11.0,95,0.00,,,0.00,,2013-05-10 02:01:00,
2013-05-09 19:11:00,50.0,49.0,25.89,WNW,303,5.0,11.0,95,0.00,,,0.00,,2013-05-10 02:11:00,
2013-05-09 19:21:00,50.0,49.0,25.89,WNW,303,5.0,11.0,95,0.00,,,0.00,,2013-05-10 02:21:00,
2013-05-09 19:31:00,50.0,49.0,25.88,NW,311,4.0,6.0,95,0.00,,,0.00,,2013-05-10 02:31:00,
2013-05-09 19:42:00,50.0,49.0,25.88,NW,311,4.0,6.0,95,0.00,,,0.00,,2013-05-10 02:42:00,
2013-05-09 19:52:00,50.0,49.0,25.88,NW,311,4.0,6.0,95,0.00,,,0.00,,2013-05-10 02:52:00,